Powrót do katalogu

MAQSAT/ARIANE 5

AktywnyNaukaHEO
NORAD 28545·PAYLOAD·🇫🇷 France

Wystrzelony Feb 12, 2005 z Guiana Space Centre

Loading…

Następne Przeloty (najbliższe 24 godziny)

TLE

ŚwieżeSource: Space-Track

Epoka: Sep 11, 2026, 14:39 UTC

1 28545U 05005D   26254.61049999  .00000971  00000-0  31307-3 0  9994
2 28545   7.4274   1.1437 7002275 265.9843  18.6262  2.62810741190743

Śledź MAQSAT/ARIANE 5 w czasie rzeczywistym z AllMySat

Download on the App Store